| time (UTC) | temp F | wind direction | speed MPH | gust MPH | rain 1hr in | rain 24hr in | rain mn in | humidity % | barometer mb |
| 20260502123043 | 0 | 0.0 | 0.0 | 0.00 | 0.00 | 0.00 | 1015.4 | ||
| 20260502121547 | 0 | 0.0 | 0.0 | 0.00 | 0.00 | 0.00 | 1015.5 | ||
| 20260502114531 | 0 | 0.0 | 0.0 | 0.00 | 0.00 | 0.00 | 1015.7 | ||
| 20260502113026 | 41 | 0.0 | 0.0 | 0.00 | 0.00 | 0.00 | 56 | 1015.9 | |
| 20260502111521 | 42 | 0.0 | 0.0 | 0.00 | 0.00 | 0.00 | 56 | 1015.8 | |
| 20260502110018 | 42 | 0.0 | 0.0 | 0.00 | 0.00 | 0.00 | 56 | 1015.9 | |
| 20260502104513 | 42 | 0.0 | 0.0 | 0.00 | 0.00 | 0.00 | 55 | 1015.7 | |
| 20260502103007 | 43 | 0.0 | 0.0 | 0.00 | 0.00 | 0.00 | 56 | 1015.6 | |
| 20260502101503 | 44 | 0.0 | 0.0 | 0.00 | 0.00 | 0.00 | 54 | 1015.4 | |
| 20260502071509 | 46 | 0.0 | 0.0 | 0.00 | 0.00 | 0.00 | 59 | 1015.1 | |
| 20260502070005 | 45 | 0.0 | 0.0 | 0.00 | 0.00 | 0.00 | 60 | 1015.1 | |
| 20260502064501 | 46 | 0.0 | 0.0 | 0.00 | 0.00 | 0.00 | 59 | 1015.0 | |
| 20260502063058 | 46 | 0.0 | 0.0 | 0.00 | 0.00 | 0.00 | 56 | 1014.9 | |
| 20260502061553 | 47 | 0.0 | 0.0 | 0.00 | 0.00 | 0.00 | 57 | 1014.8 | |
| 20260502060048 | 47 | 0.0 | 0.0 | 0.00 | 0.00 | 0.00 | 57 | 1014.9 | |
| 20260502054545 | 47 | 0.0 | 0.0 | 0.00 | 0.00 | 0.00 | 56 | 1014.8 | |
| 20260502053039 | 48 | 0.0 | 0.0 | 0.00 | 0.00 | 0.00 | 56 | 1014.7 | |
| 20260502051543 | 48 | 0.0 | 0.0 | 0.00 | 0.00 | 0.00 | 56 | 1014.8 | |
| 20260502050037 | 48 | 0.0 | 0.0 | 0.00 | 0.00 | 0.00 | 55 | 1014.6 | |
| 20260502044526 | 48 | 0.0 | 0.0 | 0.00 | 0.00 | 0.00 | 55 | 1014.6 | |
| 20260502043022 | 49 | 0.0 | 0.0 | 0.00 | 0.00 | 0.00 | 54 | 1014.5 | |
| 20260502041518 | 49 | 0.0 | 0.0 | 0.00 | 0.00 | 0.00 | 53 | 1014.5 | |
| 20260502040013 | 51 | 0.0 | 0.0 | 0.00 | 0.00 | 0.00 | 49 | 1014.4 | |
| 20260502034510 | 52 | 0.0 | 0.0 | 0.00 | 0.00 | 0.00 | 46 | 1014.3 | |
| 20260502033004 | 53 | 0.0 | 0.0 | 0.00 | 0.00 | 0.00 | 43 | 1014.1 | |
| 20260502031600 | 55 | 0.0 | 0.0 | 0.00 | 0.00 | 0.00 | 39 | 1013.9 | |
| 20260502030057 | 56 | 0.0 | 0.0 | 0.00 | 0.00 | 0.00 | 36 | 1013.7 | |
| 20260502024554 | 58 | 0.0 | 0.0 | 0.00 | 0.00 | 0.00 | 36 | 1013.4 | |
| 20260502023052 | 60 | 0.0 | 0.0 | 0.00 | 0.00 | 0.00 | 35 | 1013.2 | |
| 20260502021543 | 61 | 0.0 | 0.0 | 0.00 | 0.00 | 0.00 | 33 | 1013.1 | |
| 20260502020040 | 62 | 286 | 0.0 | 5.0 | 0.00 | 0.00 | 0.00 | 31 | 1013.0 |
| 20260502014539 | 64 | 288 | 1.0 | 7.0 | 0.00 | 0.00 | 0.00 | 29 | 1012.8 |
| 20260502013038 | 66 | 308 | 1.0 | 7.0 | 0.00 | 0.00 | 0.00 | 27 | 1012.8 |
| 20260502011538 | 67 | 298 | 4.0 | 9.0 | 0.00 | 0.00 | 0.00 | 26 | 1012.7 |
| 20260502010037 | 67 | 315 | 3.0 | 11.0 | 0.00 | 0.00 | 0.00 | 27 | 1012.7 |
| 20260502004538 | 67 | 292 | 2.0 | 10.0 | 0.00 | 0.00 | 0.00 | 26 | 1012.8 |
| 20260502003037 | 67 | 281 | 2.0 | 11.0 | 0.00 | 0.00 | 0.00 | 27 | 1012.8 |
| 20260502001535 | 68 | 306 | 1.0 | 7.0 | 0.00 | 0.00 | 0.00 | 26 | 1012.9 |
| 20260502000033 | 68 | 317 | 3.0 | 8.0 | 0.00 | 0.00 | 0.00 | 26 | 1013.0 |
| 20260501234532 | 69 | 304 | 2.0 | 8.0 | 0.00 | 0.00 | 0.00 | 26 | 1013.0 |
| 20260501233032 | 68 | 67 | 1.0 | 7.0 | 0.00 | 0.00 | 0.00 | 25 | 1013.0 |
| 20260501231549 | 69 | 269 | 1.0 | 7.0 | 0.00 | 0.00 | 0.00 | 24 | 1013.0 |
| 20260501230029 | 69 | 331 | 3.0 | 9.0 | 0.00 | 0.00 | 0.00 | 25 | 1013.1 |
| 20260501224526 | 68 | 295 | 1.0 | 10.0 | 0.00 | 0.00 | 0.00 | 25 | 1013.2 |
| 20260501223037 | 68 | 309 | 3.0 | 9.0 | 0.00 | 0.00 | 0.00 | 25 | 1013.4 |
| 20260501221525 | 68 | 286 | 4.0 | 13.0 | 0.00 | 0.00 | 0.00 | 23 | 1013.5 |
| 20260501220021 | 69 | 300 | 7.0 | 19.0 | 0.00 | 0.00 | 0.00 | 23 | 1013.8 |
| 20260501214518 | 68 | 299 | 3.0 | 12.0 | 0.00 | 0.00 | 0.00 | 24 | 1014.0 |
| 20260501213018 | 68 | 308 | 5.0 | 14.0 | 0.00 | 0.00 | 0.00 | 23 | 1014.1 |
| 20260501211518 | 67 | 300 | 3.0 | 12.0 | 0.00 | 0.00 | 0.00 | 24 | 1014.2 |
| 20260501210016 | 67 | 298 | 6.0 | 16.0 | 0.00 | 0.00 | 0.00 | 23 | 1014.4 |
| 20260501204520 | 68 | 281 | 2.0 | 13.0 | 0.00 | 0.00 | 0.00 | 23 | 1014.4 |
| 20260501203014 | 68 | 263 | 2.0 | 12.0 | 0.00 | 0.00 | 0.00 | 21 | 1014.5 |
| 20260501201513 | 67 | 284 | 2.0 | 9.0 | 0.00 | 0.00 | 0.00 | 20 | 1014.4 |
| 20260501200011 | 66 | 284 | 2.0 | 9.0 | 0.00 | 0.00 | 0.00 | 24 | 1014.5 |
| 20260501194511 | 67 | 239 | 3.0 | 11.0 | 0.00 | 0.00 | 0.00 | 21 | 1014.6 |
| 20260501193010 | 67 | 265 | 3.0 | 13.0 | 0.00 | 0.00 | 0.00 | 21 | 1014.6 |
| 20260501191509 | 66 | 286 | 4.0 | 11.0 | 0.00 | 0.00 | 0.00 | 20 | 1014.7 |
| 20260501190012 | 66 | 283 | 2.0 | 11.0 | 0.00 | 0.00 | 0.00 | 21 | 1014.9 |
| 20260501184506 | 66 | 42 | 3.0 | 8.0 | 0.00 | 0.00 | 0.00 | 20 | 1015.1 |
| 20260501183006 | 65 | 323 | 0.0 | 6.0 | 0.00 | 0.00 | 0.00 | 19 | 1015.3 |
| 20260501181503 | 65 | 28 | 2.0 | 7.0 | 0.00 | 0.00 | 0.00 | 24 | 1015.5 |
| 20260501174610 | 63 | 25 | 4.0 | 11.0 | 0.00 | 0.00 | 0.00 | 23 | 1015.9 |
| 20260501173056 | 63 | 5 | 2.0 | 9.0 | 0.00 | 0.00 | 0.00 | 24 | 1016.0 |
| 20260501171552 | 62 | 32 | 3.0 | 13.0 | 0.00 | 0.00 | 0.00 | 25 | 1016.2 |
| 20260501170052 | 60 | 123 | 3.0 | 9.0 | 0.00 | 0.00 | 0.00 | 27 | 1016.1 |
| 20260501164549 | 60 | 90 | 3.0 | 10.0 | 0.00 | 0.00 | 0.00 | 26 | 1016.1 |
| 20260501163047 | 60 | 86 | 2.0 | 10.0 | 0.00 | 0.00 | 0.00 | 29 | 1016.0 |
| 20260501161550 | 59 | 104 | 5.0 | 14.0 | 0.00 | 0.00 | 0.00 | 30 | 1016.1 |
| 20260501160048 | 58 | 64 | 1.0 | 10.0 | 0.00 | 0.00 | 0.00 | 32 | 1016.0 |
| 20260501154538 | 57 | 0.0 | 0.0 | 0.00 | 0.00 | 0.00 | 31 | 1016.1 | |
| 20260501153032 | 57 | 0.0 | 0.0 | 0.00 | 0.00 | 0.00 | 33 | 1016.0 | |
| 20260501151528 | 57 | 0.0 | 0.0 | 0.00 | 0.00 | 0.00 | 32 | 1016.1 | |
| 20260501150030 | 56 | 0.0 | 0.0 | 0.00 | 0.00 | 0.00 | 33 | 1016.1 | |
| 20260501144519 | 55 | 0.0 | 0.0 | 0.00 | 0.00 | 0.00 | 36 | 1015.9 | |
| 20260501143019 | 54 | 0.0 | 0.0 | 0.00 | 0.00 | 0.00 | 37 | 1015.8 | |
| 20260501141511 | 51 | 0.0 | 0.0 | 0.00 | 0.00 | 0.00 | 41 | 1015.5 | |
| 20260501140005 | 50 | 0.0 | 0.0 | 0.00 | 0.00 | 0.00 | 45 | 1015.5 | |
| 20260501134501 | 49 | 0.0 | 0.0 | 0.00 | 0.00 | 0.00 | 47 | 1015.1 |